STARLINK-3881, 52472

Orbit data source: Space-Track

STARLINK-3881, 52472 is a payload satellite owned by SpaceX/Seattle (US) in LEO that was launched on Fri, 06 May 2022 UTC via an FALCON 9 launch vehicle from the Air Force Eastern Test Range (AFETR). Payload-class satellites include a variety of spacecraft equipped with specific instruments for various scientific and technological missions. These include communications satellites like Starlink; space stations such as the ISS; scientific satellites like the Hubble; Earth observation satellites from companies like Planet Labs, Umbra, and HawkEye 360; GPS; miniature CubeSats for education and research; and military/defense satellites.

Loading next visibility...
Identifier
52472, 2022-049X
Orbit
LEO
Country
Flag of USUS
Related business
Manufacturer
SpaceX/Seattle
Mission
Operational spacecraft
Bus & Motor
STARLINK, Unknown motor
Mass
297 kg wet, ~220 kg dry
Launch date (UTC)
2022-05-06 (4 years ago)
Launch vehicle
FALCON 9
Launch site
Air Force Eastern Test Range (AFETR)
Object type
Payload
Rocket body
Debris
Shape & HBR
Unknown shape, 10.1 m
Radar Cross Section
Large (>1 m²)

Expand to show TLE details & history
Last TLE update: 1 day ago

TLE from 1 day ago
0 STARLINK-3881
1 52472U 22049X   25349.44812731 -.00001599  00000-0 -82377-4 0  9997
2 52472  53.2175  77.2950 0001154  93.8317 266.2807 15.08841072199531
Epoch: 2025-12-15T10:45Z
TLE epoch observation values (Epoch: 2025-12-15T10:45:18.199Z)
Latitude
-0.00004°
Longitude
-168.3774°
Altitude
540.689 km
Speed
7.593 km/s
True Right ascension
05h 09m 10s
True Declination
0° 00' 00"
Sunlit
Object was in full shadow at epoch
Visualization orbit readout
Latitude
Unknown
Longitude
Unknown
Altitude
Unknown
Speed
Unknown
Apparent Right ascension
Unknown
Apparent Declination
Unknown
Sunlit
N/A
Visualization observer readout
Local Sidereal Time
10:48:34
Azimuth
Unknown
Elevation
Unknown
Doppler factor
Unknown
Orbital elements
Apogee altitude
540.783 km
Perigee altitude
539.187 km
Semi-major axis
6,918.122 km
Eccentricity
0.00012
Inclination
53.2175°
RAAN
77.295°
Arg. of periapsis
93.8317°
True anomaly
266.2675°
Mean anomaly
266.2807°
Eccentric anomaly
266.2741°
Mean motion
3.77191 °/min
Orbital period
95.44 mins
BSTAR
-0.000082377
Loading maneuver chart data...
Computing Atmospheric mass density...
Loading historical data...
Loading historical data...
Loading historical data...
Loading historical data...
Loading historical data...
Loading historical data...
Loading historical data...

Documentation

Showing up to 5 results
|